This is the latest recevied weather packets stored in our database for station/object DK9XR-14. If no packets are shown the sender has not sent any weather packets the latest 10 day(s).
| Time | Temp. | Humidity | Pressure | Rain* | Wind** | Luminosity | Snow |
|---|---|---|---|---|---|---|---|
| 1777926561 | 15.56° C | 70% | 1013.7 hPa | 0 mm | - | - | - |
| 1777926263 | 15.56° C | 69% | 1013.8 hPa | 0 mm | - | - | - |
| 1777925960 | 16.11° C | 68% | 1013.9 hPa | 0 mm | - | - | - |
| 1777925659 | 16.11° C | 67% | 1014 hPa | 0 mm | - | - | - |
| 1777925355 | 16.11° C | 67% | 1014 hPa | 0 mm | - | - | - |
| 1777925055 | 16.67° C | 67% | 1014 hPa | 0 mm | - | - | - |
| 1777924757 | 16.67° C | 65% | 1014 hPa | 0 mm | - | - | - |
| 1777924453 | 17.22° C | 63% | 1014 hPa | 0 mm | - | - | - |
| 1777924154 | 17.22° C | 62% | 1013.9 hPa | 0 mm | - | - | - |
| 1777923854 | 17.22° C | 61% | 1013.9 hPa | 0 mm | - | - | - |
| 1777923549 | 17.22° C | 60% | 1014 hPa | 0 mm | - | - | - |
| 1777923248 | 17.78° C | 57% | 1014 hPa | 0 mm | - | - | - |
| 1777922946 | 18.33° C | 54% | 1013.9 hPa | 0 mm | - | - | - |
| 1777922646 | 18.33° C | 52% | 1013.8 hPa | 0 mm | - | - | - |
| 1777922347 | 18.89° C | 50% | 1013.7 hPa | 0 mm | - | - | - |
| 1777922046 | 18.89° C | 51% | 1013.6 hPa | 0 mm | - | - | - |
| 1777921743 | 18.89° C | 50% | 1013.6 hPa | 0 mm | - | - | - |
| 1777921446 | 19.44° C | 50% | 1013.4 hPa | 0 mm | - | - | - |
| 1777921144 | 19.44° C | 51% | 1013.2 hPa | 0 mm | - | - | - |
| 1777920842 | 19.44° C | 51% | 1013.1 hPa | 0 mm | - | - | - |
| 1777920543 | 19.44° C | 54% | 1013.1 hPa | 0 mm | - | - | - |
| 1777920242 | 20° C | 53% | 1013.1 hPa | 0 mm | - | - | - |
| 1777919942 | 20° C | 53% | 1013 hPa | 0 mm | - | - | - |
| 1777919641 | 20° C | 51% | 1013 hPa | 0 mm | - | - | - |
| 1777919341 | 20.56° C | 49% | 1012.9 hPa | 0 mm | - | - | - |
* Rain latest hour (hover to see other rain measurements)
** Current wind speed in m/s (hover to see current wind gust speed)